Location: Ammerl�gen
(47.2167°N, 9.6000°E)
Time: 15:55:03
(UTC+00:00)

Cosmos 1818 - Pass Details

Date: 21 April 2021
Orbit: 772 x 802 km, 65.0° (Epoch: 06 May)

Event Time Altitude Azimuth Distance (km) Brightness Sun altitude
Rises 19:11:10 0° 214° (SW) 3,272 6.8 -8.9°
Reaches altitude 10° 19:13:34 10° 214° (SW) 2,351 6.1 -9.3°
Maximum altitude 19:18:59 87° 127° (SE) 803 3.6 -10.1°
Drops below altitude 10° 19:24:29 10° 38° (NE) 2,382 6.0 -10.9°
Sets 19:26:56 0° 38° (NE) 3,318 6.7 -11.2°
